Yatton Keynell, United Kingdom

5:08 AM GMT on March 22, 2019 (GMT +0000)
Yatton Keynell

Weather History for 03740 - April, 1999

Change the Weather History Date:

Monday, April 12, 1999

  Actual Average Record
Temperature  
Mean Temperature 46 °F -  
Max Temperature 50 °F 56 °F - ()
Min Temperature 42 °F 40 °F - ()
Degree Days  
Heating Degree Days 19    
Moisture  
Dew Point 41 °F    
Average Humidity 80    
Maximum Humidity 93    
Minimum Humidity 71    
Precipitation  
Precipitation 0.00 in 0.06 in - ()
Sea Level Pressure  
Sea Level Pressure 29.42 in    
Wind  
Wind Speed 14 mph ()    
Max Wind Speed 21 mph    
Max Gust Speed 33 mph    
Visibility 5.9 miles    
Events Rain    
T = Trace of Precipitation, MM = Missing Value Source: Averaged Metar Reports

Daily Weather History Graph

Daily Weather History Graph

Search for Another Location

Airport or City:

Astronomy

Apr. 12, 1999 Rise Set
Actual Time 6:19 AM BST 7:58 PM BST
Civil Twilight 5:45 AM BST 8:33 PM BST
Nautical Twilight 5:02 AM BST 9:17 PM BST
Astronomical Twilight 4:14 AM BST 10:05 PM BST
Moon 4:57 AM BST (4/12) 3:13 PM BST (4/12)
Length of Visible Light 14h 48m
Length of Day
13h 38m
Waning Crescent, 18% of the Moon is Illuminated
Apr 12
Waning Crescent
Apr 16
New
Apr 22
First Quarter
Apr 30
Full
May 8
Last Quarter

Hourly Weather History & Observations

Time (BST) Temp. Windchill Dew Point Humidity Pressure Visibility Wind Dir Wind Speed Gust Speed Precip Events Conditions
12:50 AM 48.2 °F - 46.4 °F 93% 29.56 in 5.0 mi SW 16.1 mph - N/A Rain Rain
1:50 AM 48.2 °F - 46.4 °F 93% 29.50 in 1.9 mi SW 16.1 mph - N/A Rain Rain
2:50 AM 48.2 °F - 46.4 °F 93% 29.50 in 6.2 mi West 13.8 mph - N/A   Overcast
3:50 AM 46.4 °F 40.7 °F 41.0 °F 81% 29.47 in 6.2 mi West 12.7 mph - N/A   Mostly Cloudy
4:50 AM 44.6 °F 38.1 °F 41.0 °F 87% 29.44 in 6.2 mi West 13.8 mph - N/A   Scattered Clouds
5:50 AM 42.8 °F 36.6 °F 39.2 °F 87% 29.42 in 6.2 mi WSW 11.5 mph - N/A   Partly Cloudy
6:50 AM 44.6 °F 37.2 °F 39.2 °F 81% 29.42 in 6.2 mi West 17.3 mph - N/A   Scattered Clouds
7:50 AM 46.4 °F 39.0 °F 39.2 °F 76% 29.42 in 6.2 mi West 19.6 mph - N/A   Scattered Clouds
8:50 AM 46.4 °F 39.5 °F 39.2 °F 76% 29.42 in 6.2 mi West 17.3 mph - N/A   Scattered Clouds
9:50 AM 48.2 °F - 39.2 °F 71% 29.39 in 6.2 mi West 18.4 mph - N/A   Scattered Clouds
10:50 AM 48.2 °F - 39.2 °F 71% 29.36 in 6.2 mi West 18.4 mph - N/A Rain Light Rain Showers
11:50 AM 48.2 °F - 41.0 °F 76% 29.36 in 6.2 mi WSW 18.4 mph - N/A   Scattered Clouds
12:50 PM 50.0 °F - 42.8 °F 76% 29.33 in 6.2 mi WSW 16.1 mph - N/A   Scattered Clouds
1:50 PM 48.2 °F - 41.0 °F 76% 29.33 in 5.6 mi West 18.4 mph - N/A Rain Light Rain Showers
2:50 PM 48.2 °F - 41.0 °F 76% 29.33 in 6.2 mi West 20.7 mph 33.4 mph N/A Rain Light Rain Showers
3:50 PM 50.0 °F - 42.8 °F 76% 29.33 in 6.2 mi West 19.6 mph - N/A Rain Light Rain Showers
4:50 PM 50.0 °F - 41.0 °F 71% 29.33 in 6.2 mi West 15.0 mph - N/A   Scattered Clouds
5:50 PM 46.4 °F 39.2 °F 39.2 °F 76% 29.36 in 6.2 mi NNW 18.4 mph - N/A Rain Light Rain Showers
6:50 PM 46.4 °F 40.1 °F 42.8 °F 87% 29.39 in 4.3 mi NNW 15.0 mph 29.9 mph N/A Rain Light Rain Showers
7:50 PM 46.4 °F 40.1 °F 39.2 °F 76% 29.42 in 6.2 mi NW 15.0 mph - N/A   Scattered Clouds
8:50 PM 44.6 °F 40.2 °F 41.0 °F 87% 29.44 in 6.2 mi NW 8.1 mph - N/A   Scattered Clouds
9:50 PM 44.6 °F 38.8 °F 39.2 °F 81% 29.47 in 6.2 mi NW 11.5 mph - N/A Rain Light Rain Showers
10:50 PM 44.6 °F 38.1 °F 39.2 °F 81% 29.53 in 6.2 mi NW 13.8 mph - N/A Rain Light Rain Showers
11:50 PM 46.4 °F 39.8 °F 39.2 °F 76% 29.56 in 6.2 mi NW 16.1 mph - N/A   Scattered Clouds